Weather History for Alpine, TX

Change the Weather History Date:

Saturday, November 17, 2012

  Actual Average (KMRF) Record (KMRF)
Temperature  
Mean Temperature 56 °F -  
Max Temperature 71 °F 63 °F 75 °F (1998)
Min Temperature 42 °F 33 °F 23 °F (2005)
Degree Days  
Heating Degree Days 8    
Growing Degree Days 6 (Base 50)    
Moisture  
Dew Point 45 °F    
Average Humidity 66    
Maximum Humidity 87    
Minimum Humidity 39    
Precipitation  
Precipitation 0.00 in - - ()
Sea Level Pressure  
Sea Level Pressure 30.29 in    
Wind  
Wind Speed 6 mph (SSW)    
Max Wind Speed 14 mph    
Max Gust Speed 16 mph    
Visibility 10 miles    
Events      
Averages and records for this station are not official NWS values.
T = Trace of Precipitation, MM = Missing Value Source: NWS Daily Summary

Daily Weather History Graph

Daily Weather History Graph

Search for Another Location

Airport:

Trip Planner

Search our weather history database for the weather conditions in past years. The results will help you decide how hot, cold, wet, or windy it might be!

Date:

Astronomy

Nov. 17, 2012 Rise Set
Actual Time 7:22 AM CST 5:56 PM CST
Civil Twilight 6:57 AM CST 6:22 PM CST
Nautical Twilight 6:27 AM CST 6:51 PM CST
Astronomical Twilight 5:59 AM CST 7:20 PM CST
Moon 11:09 AM CST (11/17) 10:07 PM CST (11/17)
Length of Visible Light 11h 25m
Length of Day
10h 34m
Waxing Crescent, 20% of the Moon is Illuminated
Nov 17
Waxing Crescent
Nov 20
First Quarter
Nov 28
Full
Dec 6
Last Quarter
Dec 13
New

Hourly Weather History & Observations

Time (CST) Temp. Windchill Dew Point Humidity Pressure Visibility Wind Dir Wind Speed Gust Speed Precip Events Conditions
12:15 AM 42.4 °F 38.8 °F 38.5 °F 86% 30.32 in 10.0 mi South 5.8 mph - N/A   Clear
12:35 AM 43.3 °F 39.2 °F 39.6 °F 87% 30.32 in 10.0 mi SSW 6.9 mph - N/A   Clear
12:55 AM 43.7 °F 39.7 °F 39.6 °F 85% 30.32 in 10.0 mi South 6.9 mph - N/A   Clear
1:15 AM 44.2 °F 40.3 °F 40.6 °F 87% 30.32 in 10.0 mi South 6.9 mph - N/A   Clear
1:35 AM 43.9 °F 39.9 °F 40.3 °F 87% 30.32 in 10.0 mi SSW 6.9 mph - N/A   Clear
1:55 AM 45.5 °F 41.3 °F 41.2 °F 85% 30.32 in 10.0 mi South 8.1 mph - N/A   Clear
2:15 AM 46.6 °F - 41.2 °F 81% 30.31 in 10.0 mi South 6.9 mph - N/A   Clear
2:35 AM 46.8 °F - 41.2 °F 81% 30.30 in 10.0 mi SW 4.6 mph - N/A   Clear
2:55 AM 46.2 °F 44.1 °F 40.6 °F 81% 30.30 in 10.0 mi SSW 4.6 mph - N/A   Clear
3:15 AM 46.2 °F 43.3 °F 40.6 °F 81% 30.30 in 10.0 mi SSW 5.8 mph - N/A   Clear
3:35 AM 47.1 °F - 41.2 °F 80% 30.30 in 10.0 mi SSW 8.1 mph - N/A   Clear
3:55 AM 47.3 °F - 41.7 °F 81% 30.30 in 10.0 mi SSW 6.9 mph - N/A   Clear
4:15 AM 48.2 °F - 42.1 °F 79% 30.29 in 10.0 mi SSW 4.6 mph - N/A   Clear
4:35 AM 48.6 °F - 42.3 °F 79% 30.28 in 10.0 mi SSW 3.5 mph - N/A   Clear
4:55 AM 48.6 °F - 42.3 °F 79% 30.28 in 10.0 mi South 3.5 mph - N/A   Clear
5:15 AM 49.3 °F - 42.4 °F 77% 30.29 in 10.0 mi SSW 3.5 mph - N/A   Clear
5:35 AM 49.1 °F - 42.3 °F 77% 30.29 in 10.0 mi South 4.6 mph - N/A   Clear
5:55 AM 46.9 °F - 41.9 °F 83% 30.30 in 10.0 mi SSW 4.6 mph - N/A   Clear
6:15 AM 48.4 °F - 42.4 °F 80% 30.30 in 10.0 mi SSW 6.9 mph - N/A   Clear
6:35 AM 48.0 °F - 43.0 °F 83% 30.30 in 10.0 mi SSW 9.2 mph - N/A   Clear
6:55 AM 46.4 °F - 42.4 °F 86% 30.30 in 10.0 mi Calm Calm - N/A   Clear
7:15 AM 47.1 °F - 42.8 °F 85% 30.31 in 10.0 mi Calm Calm - N/A   Clear
7:35 AM 47.1 °F - 43.2 °F 86% 30.31 in 10.0 mi South 3.5 mph - N/A   Clear
7:55 AM 48.2 °F - 43.9 °F 85% 30.31 in 10.0 mi SSW 3.5 mph - N/A   Clear
8:15 AM 50.4 °F - 44.8 °F 81% 30.32 in 10.0 mi SW 3.5 mph - N/A   Clear
8:35 AM 54.0 °F - 45.9 °F 74% 30.32 in 10.0 mi SSW 3.5 mph - N/A   Clear
8:55 AM 56.1 °F - 45.9 °F 68% 30.32 in 10.0 mi SSW 3.5 mph - N/A   Clear
9:15 AM 58.1 °F - 46.0 °F 64% 30.32 in 10.0 mi SW 4.6 mph - N/A   Clear
9:35 AM 59.9 °F - 45.9 °F 60% 30.32 in 10.0 mi South 5.8 mph - N/A   Clear
9:55 AM 61.7 °F - 46.2 °F 57% 30.33 in 10.0 mi South 6.9 mph - N/A   Clear
10:15 AM 63.0 °F - 46.4 °F 55% 30.32 in 10.0 mi SSW 4.6 mph - N/A   Clear
10:35 AM 63.9 °F - 46.2 °F 53% 30.32 in 10.0 mi South 4.6 mph - N/A   Clear
11:55 AM 68.7 °F - 46.4 °F 45% 30.32 in 10.0 mi SW 11.5 mph - N/A   Clear
12:15 PM 68.9 °F - 46.0 °F 44% 30.32 in 10.0 mi WSW 11.5 mph - N/A   Clear
12:35 PM 69.1 °F - 46.0 °F 44% 30.30 in 10.0 mi SW 11.5 mph - N/A   Clear
12:55 PM 69.6 °F - 46.0 °F 43% 30.30 in 10.0 mi SW 8.1 mph - N/A   Clear
1:15 PM 70.0 °F - 45.7 °F 42% 30.28 in 10.0 mi WSW 10.4 mph - N/A   Clear
1:35 PM 71.1 °F - 45.5 °F 40% 30.28 in 10.0 mi SW 9.2 mph - N/A   Clear
1:55 PM 71.2 °F - 45.7 °F 40% 30.27 in 10.0 mi SW 11.5 mph 16.1 mph N/A   Clear
2:15 PM 71.4 °F - 45.5 °F 39% 30.26 in 10.0 mi SSW 6.9 mph 11.5 mph N/A   Clear
2:35 PM 71.2 °F - 45.3 °F 39% 30.26 in 10.0 mi SW 9.2 mph - N/A   Clear
2:55 PM 69.6 °F - 45.5 °F 42% 30.26 in 10.0 mi SW 9.2 mph - N/A   Scattered Clouds
3:15 PM 68.9 °F - 45.5 °F 43% 30.26 in 10.0 mi SW 10.4 mph - N/A   Mostly Cloudy
3:35 PM 69.1 °F - 45.7 °F 43% 30.26 in 10.0 mi SW 10.4 mph - N/A   Overcast
3:55 PM 68.9 °F - 45.9 °F 44% 30.25 in 10.0 mi SSW 6.9 mph - N/A   Scattered Clouds
4:15 PM 69.1 °F - 45.9 °F 43% 30.26 in 10.0 mi SSW 9.2 mph - N/A   Clear
4:35 PM 68.9 °F - 45.9 °F 44% 30.26 in 10.0 mi SSW 6.9 mph - N/A   Clear
4:55 PM 67.8 °F - 46.0 °F 46% 30.26 in 10.0 mi South 6.9 mph - N/A   Clear
5:35 PM 65.8 °F - 46.0 °F 49% 30.27 in 10.0 mi SSW 6.9 mph - N/A   Scattered Clouds
6:15 PM 64.4 °F - 46.2 °F 52% 30.27 in 10.0 mi SSW 6.9 mph - N/A   Overcast
6:35 PM 63.3 °F - 47.3 °F 56% 30.28 in 10.0 mi SSW 5.8 mph - N/A   Overcast
6:55 PM 63.0 °F - 47.1 °F 56% 30.28 in 10.0 mi Calm Calm - N/A   Overcast
7:15 PM 62.2 °F - 47.3 °F 58% 30.28 in 10.0 mi SSE 8.1 mph - N/A   Overcast
7:35 PM 61.5 °F - 47.8 °F 61% 30.29 in 10.0 mi SSE 10.4 mph - N/A   Overcast
7:55 PM 60.1 °F - 48.0 °F 64% 30.29 in 10.0 mi SSE 13.8 mph - N/A   Overcast
8:15 PM 59.0 °F - 48.7 °F 69% 30.31 in 10.0 mi SSE 8.1 mph - N/A   Overcast
8:35 PM 58.8 °F - 49.3 °F 71% 30.30 in 10.0 mi South 11.5 mph - N/A   Overcast
9:15 PM 58.3 °F - 49.3 °F 72% 30.30 in 10.0 mi South 6.9 mph - N/A   Mostly Cloudy
9:35 PM 57.4 °F - 49.1 °F 74% 30.28 in 10.0 mi SSE 4.6 mph - N/A   Mostly Cloudy
9:55 PM 56.3 °F - 48.7 °F 76% 30.28 in 10.0 mi SSE 4.6 mph - N/A   Scattered Clouds
10:15 PM 56.5 °F - 48.6 °F 75% 30.28 in 10.0 mi SSW 5.8 mph - N/A   Mostly Cloudy
10:35 PM 57.2 °F - 48.4 °F 72% 30.28 in 10.0 mi SW 5.8 mph - N/A   Mostly Cloudy
10:55 PM 57.6 °F - 48.4 °F 71% 30.27 in 10.0 mi SSW 8.1 mph - N/A   Mostly Cloudy
11:15 PM 57.9 °F - 48.4 °F 71% 30.27 in 10.0 mi South 8.1 mph - N/A   Mostly Cloudy
11:35 PM 58.3 °F - 48.2 °F 69% 30.27 in 10.0 mi South 6.9 mph - N/A   Mostly Cloudy
11:55 PM 59.0 °F - 48.0 °F 67% 30.24 in 10.0 mi SSE 6.9 mph - N/A   Mostly Cloudy